Location: General Nathan Twining Observatory
(34.5931°N, 106.8201°W)
Time: 18:37:00
(UTC-07:00)

Cosmos 2084 - Pass Details

Date: 20 September 2017
Orbit: 497 x 687 km, 62.8° (Epoch: 11 December)

Event Time Altitude Azimuth Distance (km) Brightness Sun altitude
Rises 20:21:06 0° 214° (SW) 2,760 7.2 -16.1°
Reaches altitude 10° 20:23:22 10° 216° (SW) 1,835 6.3 -16.5°
Maximum altitude 20:27:28 76° 301° (WNW) 556 3.4 -17.4°
Drops below altitude 10° 20:31:24 10° 28° (NNE) 1,751 5.7 -18.2°
Enters shadow 20:32:22 - 29° (NNE) 2,149 6.2 -18.3°
